Location: Las Vegas
(36.1750°N, 115.1360°W)
Time: 06:11:00
(UTC-07:00)

Amateur Radio Satellites - All Passes

Search period start: 21 April 2015 05:41
Search period end: 22 April 2015 05:41
Location: Las Vegas, 36.1750°N, 115.1360°W

Satellite Date Start Highest point End Downlink Frequencies (MHz)
Time Altitude Azimuth
AUBIESAT-1 21 Apr 05:48:26 05:53:07 76° 71° (ENE) 05:57:57 437.475
HORYU 2 21 Apr 05:49:54 05:51:20 11° 295° (WNW) 05:52:30 437.375
PRISM 21 Apr 05:53:27 05:56:48 24° 71° (ENE) 06:00:14 437.425
CUSAT 1 21 Apr 05:54:10 06:00:58 40° 267° (W) 06:08:25 437.405
GONETS M04 21 Apr 05:59:43 06:06:50 27° 275° (W) 06:13:36
DANDE 21 Apr 05:59:50 06:06:39 44° 266° (W) 06:14:26 436.750
STRAND 1 21 Apr 06:03:13 06:07:24 27° 69° (ENE) 06:11:43 437.568
AIST 2 21 Apr 06:11:44 06:14:17 15° 314° (NW) 06:16:42 435.215
CUBESAT XI-V 21 Apr 06:21:24 06:26:03 83° 75° (ENE) 06:30:42 437.345
CUTE-I 21 Apr 06:22:35 06:27:18 33° 96° (E) 06:32:05 437.470
Cosmos 2499 21 Apr 06:25:00 06:32:56 82° 82° (E) 06:40:16 435.465 / 435.565
Cubesat XI-IV 21 Apr 06:30:28 06:35:26 40° 98° (E) 06:40:25 437.490
SRMSAT 21 Apr 06:33:29 06:36:54 16° 179° (S) 06:40:20 437.500
JUGNU 21 Apr 06:34:22 06:37:05 13° 188° (S) 06:39:45 437.505
M-CUBED/EXP-1 PRIME 21 Apr 06:36:40 06:40:47 29° 260° (W) 06:44:58 437.505
AO-7 21 Apr 07:10:56 07:15:37 16° 306° (NW) 07:19:52 29.400- 29.500
AUBIESAT-1 21 Apr 07:28:07 07:28:31 10° 268° (W) 07:28:32 437.475
PRISM 21 Apr 07:28:49 07:32:13 23° 265° (W) 07:35:32 437.425
STRAND 1 21 Apr 07:41:59 07:46:31 31° 264° (W) 07:51:01 437.568
CUTE-I 21 Apr 08:02:49 08:07:17 27° 291° (WNW) 08:11:40 437.470
Cubesat XI-IV 21 Apr 08:11:10 08:15:20 23° 292° (WNW) 08:19:21 437.490
BRITE-PL 21 Apr 08:13:11 08:17:31 30° 96° (E) 08:22:13 437.365/2234.400
Cosmos 2499 21 Apr 08:20:52 08:25:04 15° 280° (W) 08:28:36 435.465 / 435.565
SRMSAT 21 Apr 08:22:37 08:25:19 13° 189° (S) 08:27:58 437.500
GOMX 1 21 Apr 08:26:26 08:30:38 26° 95° (E) 08:35:07 467.674
HO-68 21 Apr 08:29:49 08:35:40 27° 94° (E) 08:41:41 435.675
CANX-2 21 Apr 08:42:10 08:45:45 26° 95° (E) 08:49:21 2200.000
SEEDS 21 Apr 08:42:38 08:45:38 19° 93° (E) 08:48:45 437.485
PCSat 21 Apr 08:43:16 08:48:16 41° 111° (ESE) 08:53:22 145.827
CUTE 1.7 + AOD 2 21 Apr 08:51:56 08:55:43 30° 96° (E) 08:59:30 437.475
O/OREOS (USA 219) 21 Apr 08:53:00 08:57:13 39° 65° (ENE) 09:01:26 437.305
CINEMA 3 21 Apr 09:10:45 09:14:46 25° 94° (E) 09:18:56 145.822/145.860
AAUSAT CUBESAT 2 21 Apr 09:11:20 09:14:57 28° 96° (E) 09:18:36 437.432
DELFI C3 21 Apr 09:21:01 09:21:56 11° 90° (E) 09:23:07 145.870
DOVE 4 21 Apr 09:26:22 09:31:24 73° 100° (E) 09:36:40 437.250
ZACube-1 21 Apr 09:31:29 09:33:18 12° 89° (E) 09:35:22 437.345
TIGRISAT 21 Apr 09:32:47 09:35:39 18° 68° (ENE) 09:38:44 435.000
UNISAT 6 21 Apr 09:34:35 09:37:39 19° 68° (ENE) 09:40:55 437.425
Cosmos 2491 21 Apr 09:37:32 09:45:22 36° 72° (ENE) 09:53:21 435.465 / 435.565
Oscar 11 21 Apr 09:40:55 09:44:41 29° 96° (E) 09:48:28 145.826/435.025
CUBEBUG 2 21 Apr 09:43:09 09:47:12 28° 95° (E) 09:51:19 437.445
QB50P1 21 Apr 09:49:08 09:50:32 12° 67° (ENE) 09:52:11 145.935-145.965
BRITE-PL 21 Apr 09:51:42 09:55:59 29° 288° (WNW) 10:00:27 437.365/2234.400
COMPASS 1 21 Apr 09:59:39 10:03:49 60° 285° (WNW) 10:07:56 437.405
GOMX 1 21 Apr 10:04:16 10:08:46 33° 288° (WNW) 10:13:24 467.674
HUMSAT D 21 Apr 10:06:15 10:08:20 14° 91° (E) 10:10:37 437.325/437.525
DX 1 21 Apr 10:06:45 10:09:38 18° 93° (E) 10:12:40 434.975-435.025
QB50P2 21 Apr 10:11:26 10:14:39 22° 70° (ENE) 10:17:58 145.880/145.840
ANTELSAT 21 Apr 10:14:59 10:19:19 53° 74° (ENE) 10:23:47 437.575/2403.000
HO-68 21 Apr 10:16:47 10:23:42 50° 291° (WNW) 10:30:31 435.675
SEEDS 21 Apr 10:17:46 10:21:31 30° 288° (WNW) 10:25:10 437.485
CANX-2 21 Apr 10:18:10 10:21:35 23° 289° (WNW) 10:24:53 2200.000
UWE-3 21 Apr 10:19:19 10:23:56 57° 99° (E) 10:28:34 435.000/436.395/437.385
PCSat 21 Apr 10:27:21 10:31:52 26° 308° (NW) 10:36:18 145.827
50 SAT 21 Apr 10:27:31 10:29:26 13° 91° (E) 10:31:34 437.505
CUTE 1.7 + AOD 2 21 Apr 10:28:18 10:31:28 20° 290° (WNW) 10:34:29 437.475
NANOSAT C BR1 21 Apr 10:32:23 10:36:13 37° 73° (ENE) 10:40:08 145.865
POPSAT HIP 1 21 Apr 10:33:15 10:37:08 38° 73° (ENE) 10:41:04 437.405
O/OREOS (USA 219) 21 Apr 10:33:33 10:36:20 16° 259° (W) 10:38:55 437.305
YUBILEINY 21 Apr 10:41:26 10:49:30 44° 89° (E) 10:57:44 435.215
FUNcube-1 21 Apr 10:42:04 10:46:41 80° 102° (ESE) 10:51:16 145.935
AAUSAT CUBESAT 2 21 Apr 10:47:18 10:50:25 20° 290° (WNW) 10:53:25 437.432
CINEMA 3 21 Apr 10:47:34 10:51:58 32° 288° (WNW) 10:56:22 145.822/145.860
DELFI C3 21 Apr 10:53:32 10:57:26 47° 286° (WNW) 11:01:17 145.870
VELOX 1 21 Apr 10:53:51 10:57:36 27° 96° (E) 11:01:25 145.980
UKube-1 21 Apr 10:55:43 11:00:02 63° 101° (E) 11:04:19 .
POLYITAN 1 21 Apr 11:00:21 11:04:33 86° 77° (ENE) 11:08:48 437.675
ZACube-1 21 Apr 11:05:31 11:10:03 55° 285° (WNW) 11:14:32 437.345
DOVE 4 21 Apr 11:06:29 11:08:42 13° 293° (WNW) 11:10:40 437.250
DUCHIFAT 1 21 Apr 11:07:31 11:11:41 81° 258° (WSW) 11:15:54 145.980
TIGRISAT 21 Apr 11:07:58 11:12:07 38° 263° (W) 11:16:22 435.000
AISAT 21 Apr 11:09:22 11:13:37 43° 99° (E) 11:17:52 437.250
UNISAT 6 21 Apr 11:10:05 11:14:11 35° 263° (W) 11:18:22 437.425
CUBEBUG 1 21 Apr 11:13:53 11:17:08 21° 94° (E) 11:20:30 437.445
Oscar 11 21 Apr 11:17:22 11:20:43 21° 290° (WNW) 11:23:57 145.826/435.025
CUBEBUG 2 21 Apr 11:19:48 11:23:48 27° 289° (WNW) 11:27:43 437.445
QB50P1 21 Apr 11:21:55 11:26:00 52° 260° (W) 11:30:07 145.935-145.965
BUGSAT 1 21 Apr 11:24:02 11:28:03 73° 258° (WSW) 11:32:05 437.445
ESTCUBE 1 21 Apr 11:31:24 11:35:35 39° 98° (E) 11:39:47 437.505/2401.250
Cosmos 2491 21 Apr 11:34:08 11:42:25 46° 271° (W) 11:50:35 435.465 / 435.565
HUMSAT D 21 Apr 11:40:13 11:44:22 44° 286° (WNW) 11:48:28 437.325/437.525
DX 1 21 Apr 11:42:03 11:46:01 34° 288° (WNW) 11:49:56 434.975-435.025
QB50P2 21 Apr 11:46:53 11:50:27 26° 265° (W) 11:53:59 145.880/145.840
ANTELSAT 21 Apr 11:54:37 11:56:32 12° 271° (W) 11:58:12 437.575/2403.000
UWE-3 21 Apr 11:57:38 12:00:02 14° 293° (WNW) 12:02:13 435.000/436.395/437.385
50 SAT 21 Apr 12:00:42 12:04:30 38° 286° (WNW) 12:08:14 437.505
NANOSAT C BR1 21 Apr 12:09:45 12:12:16 15° 268° (W) 12:14:37 145.865
POPSAT HIP 1 21 Apr 12:10:47 12:13:14 15° 268° (W) 12:15:30 437.405
ISS 21 Apr 12:18:41 12:20:46 16° 130° (SE) 12:22:57 145.825
AIST 1 21 Apr 12:22:47 12:27:01 66° 82° (E) 12:31:15
BEESAT 2 21 Apr 12:24:55 12:28:17 24° 51° (NE) 12:31:41 435.950
BEESAT 3 21 Apr 12:29:31 12:33:13 32° 54° (NE) 12:36:52 437.485
VELOX 1 21 Apr 12:30:30 12:34:04 24° 290° (WNW) 12:37:32 145.980
Cosmos 2504 21 Apr 12:31:58 12:37:35 20° 82° (E) 12:43:43 435.465 / 435.565
UKube-1 21 Apr 12:34:44 12:35:42 10° 295° (WNW) 12:36:25 .
YUBILEINY 21 Apr 12:38:23 12:46:28 37° 287° (WNW) 12:54:23 435.215
TISAT 1 21 Apr 12:40:27 12:44:28 41° 99° (E) 12:48:30 437.305
SO-50 21 Apr 12:46:23 12:51:00 82° 301° (WNW) 12:55:48 436.795
AISAT 21 Apr 12:47:09 12:49:54 16° 292° (WNW) 12:52:28 437.250
CUBEBUG 1 21 Apr 12:49:45 12:53:32 29° 288° (WNW) 12:57:15 437.445
SPROUT 21 Apr 12:52:28 12:56:48 76° 102° (ESE) 13:01:07 437.525
AIST 2 21 Apr 12:56:16 12:59:10 18° 48° (NE) 13:02:09 435.215
ESTCUBE 1 21 Apr 13:09:12 13:12:12 17° 292° (WNW) 13:15:03 437.505/2401.250
Oscar 19 21 Apr 13:22:18 13:27:27 82° 74° (ENE) 13:32:38 437.125/150
ITUPSAT 1 21 Apr 13:42:43 13:46:49 29° 96° (E) 13:50:57 437.325
ITAMSAT 1 21 Apr 13:46:47 13:51:38 42° 72° (ENE) 13:56:31 435.822/435.867
Gurwin Techsat 1B 21 Apr 13:48:57 13:53:47 38° 71° (ENE) 13:58:41 435.225
RS-15 21 Apr 13:50:44 13:59:42 33° 107° (ESE) 14:09:06 29.354- 29.394
ISS 21 Apr 13:53:50 13:56:56 39° 324° (NW) 14:00:01 145.825
JAS-2 21 Apr 13:58:38 14:00:37 11° 57° (ENE) 14:03:08 435.910
BEESAT 2 21 Apr 14:02:54 14:06:23 26° 247° (WSW) 14:09:44 435.950
BEESAT 3 21 Apr 14:08:05 14:11:02 19° 249° (WSW) 14:13:50 437.485
BEESAT 21 Apr 14:16:09 14:20:54 70° 101° (E) 14:25:38 436.000
TISAT 1 21 Apr 14:17:28 14:19:57 15° 292° (WNW) 14:22:16 437.305
SWISSCUBE 21 Apr 14:17:50 14:22:37 80° 103° (ESE) 14:27:21 437.505
Cosmos 2504 21 Apr 14:21:23 14:30:13 78° 278° (W) 14:39:08 435.465 / 435.565
AO-7 21 Apr 14:21:32 14:27:29 24° 58° (ENE) 14:33:45 29.400- 29.500
SO-50 21 Apr 14:30:50 14:32:25 11° 320° (NW) 14:33:48 436.795
AIST 2 21 Apr 14:33:59 14:37:58 40° 245° (WSW) 14:41:51 435.215
STARS 21 Apr 14:57:33 15:00:46 20° 94° (E) 15:04:08 437.465
HORYU 2 21 Apr 15:06:22 15:10:34 42° 73° (ENE) 15:14:50 437.375
GONETS M04 21 Apr 15:10:33 15:12:01 11° 78° (ENE) 15:14:22
ITUPSAT 1 21 Apr 15:20:41 15:24:37 25° 291° (WNW) 15:28:27 437.325
KKS-1 21 Apr 15:27:04 15:31:33 74° 102° (ESE) 15:36:02 437.445
ITAMSAT 1 21 Apr 15:27:30 15:31:21 20° 267° (W) 15:35:02 435.822/435.867
Gurwin Techsat 1B 21 Apr 15:29:37 15:33:53 23° 266° (W) 15:38:02 435.225
JAS-2 21 Apr 15:36:47 15:44:25 62° 73° (ENE) 15:52:05 435.910
BEESAT 21 Apr 15:56:37 15:58:14 11° 295° (WNW) 15:59:34 436.000
RS-15 21 Apr 16:00:42 16:11:28 63° 306° (NW) 16:22:28 29.354- 29.394
AO-7 21 Apr 16:11:20 16:19:37 74° 255° (WSW) 16:27:55 29.400- 29.500
Cosmos 2504 21 Apr 16:20:36 16:25:22 14° 299° (WNW) 16:29:28 435.465 / 435.565
STARS 21 Apr 16:33:20 16:37:19 32° 288° (WNW) 16:41:13 437.465
HORYU 2 21 Apr 16:44:44 16:47:28 15° 268° (W) 16:50:01 437.375
MOZHAYETS 4 21 Apr 16:57:18 17:01:40 42° 98° (E) 17:06:00
GONETS M04 21 Apr 16:58:54 17:07:34 73° 94° (E) 17:16:22
Cosmos 2499 21 Apr 17:10:14 17:12:40 12° 79° (E) 17:15:56 435.465 / 435.565
CUSAT 1 21 Apr 17:19:39 17:22:16 26° 89° (E) 17:25:31 437.405
JAS-2 21 Apr 17:23:31 17:29:52 26° 269° (W) 17:35:59 435.910
DANDE 21 Apr 17:29:43 17:32:01 21° 89° (E) 17:34:46 436.750
PCSat 21 Apr 17:34:17 17:38:13 21° 50° (NE) 17:42:19 145.827
CUTE-I 21 Apr 17:41:48 17:46:45 42° 72° (ENE) 17:51:47 437.470
Cubesat XI-IV 21 Apr 17:49:50 17:54:58 51° 73° (ENE) 18:00:09 437.490
PHONESAT 2.4 21 Apr 17:52:49 17:54:38 14° 143° (SE) 17:56:33 2401.200-2431.200
VERMONT LUNAR 21 Apr 18:07:54 18:11:09 47° 154° (SSE) 18:14:27 437.305
AO-7 21 Apr 18:11:41 18:13:58 11° 274° (W) 18:15:24 29.400- 29.500
STRAND 1 21 Apr 18:19:09 18:19:42 10° 88° (E) 18:20:38 437.568
RS-15 21 Apr 18:19:17 18:26:54 20° 334° (NNW) 18:34:20 29.354- 29.394
CUBESAT XI-V 21 Apr 18:21:25 18:25:09 25° 94° (E) 18:28:58 437.345
M-CUBED/EXP-1 PRIME 21 Apr 18:21:29 18:25:08 28° 99° (E) 18:28:35 437.505
MOZHAYETS 4 21 Apr 18:35:37 18:38:35 17° 292° (WNW) 18:41:21
ISS 21 Apr 18:48:16 18:49:29 12° 22° (NNE) 18:50:45 145.825
Cosmos 2499 21 Apr 18:55:52 19:04:39 74° 94° (E) 19:13:26 435.465 / 435.565
HO-68 21 Apr 18:57:45 19:01:44 17° 59° (ENE) 19:06:05 435.675
GONETS M04 21 Apr 18:58:55 19:05:26 21° 294° (WNW) 19:11:35
CUSAT 1 21 Apr 19:04:17 19:05:26 11° 298° (WNW) 19:06:27 437.405
AUBIESAT-1 21 Apr 19:07:40 19:11:58 88° 288° (WNW) 19:15:51 437.475
PRISM 21 Apr 19:13:01 19:17:04 57° 101° (E) 19:21:06 437.425
DANDE 21 Apr 19:14:52 19:15:35 10° 297° (WNW) 19:16:08 436.750
PCSat 21 Apr 19:16:45 19:22:02 53° 248° (WSW) 19:27:16 145.827
CUTE-I 21 Apr 19:23:00 19:27:03 21° 267° (W) 19:30:56 437.470
BRITE-PL 21 Apr 19:23:07 19:26:08 20° 70° (ENE) 19:29:16 437.365/2234.400
PHONESAT 2.4 21 Apr 19:28:57 19:32:32 70° 156° (SSE) 19:36:06 2401.200-2431.200
Cubesat XI-IV 21 Apr 19:31:52 19:35:26 17° 268° (W) 19:38:45 437.490
GOMX 1 21 Apr 19:33:49 19:36:25 17° 68° (ENE) 19:39:13 467.674
CANX-2 21 Apr 19:33:52 19:36:07 15° 68° (ENE) 19:38:35 2200.000
SEEDS 21 Apr 19:34:39 19:35:22 10° 66° (ENE) 19:36:20 437.485
CUTE 1.7 + AOD 2 21 Apr 19:43:15 19:45:55 17° 69° (ENE) 19:48:45 437.475
VERMONT LUNAR 21 Apr 19:45:25 19:48:43 48° 349° (NNW) 19:52:00 437.305
STRAND 1 21 Apr 19:54:27 19:59:33 75° 285° (WNW) 20:04:38 437.568
M-CUBED/EXP-1 PRIME 21 Apr 19:56:32 19:59:52 21° 297° (WNW) 20:02:54 437.505
CUBESAT XI-V 21 Apr 19:58:40 20:02:34 27° 289° (WNW) 20:06:25 437.345
AAUSAT CUBESAT 2 21 Apr 20:00:52 20:03:12 15° 68° (ENE) 20:05:41 437.432
CINEMA 3 21 Apr 20:11:34 20:13:55 15° 67° (ENE) 20:16:28 145.822/145.860
ISS 21 Apr 20:23:08 20:26:23 69° 39° (NE) 20:29:36 145.825
DOVE 4 21 Apr 20:30:07 20:34:06 49° 75° (ENE) 20:38:18 437.250
Oscar 11 21 Apr 20:34:04 20:36:49 17° 69° (ENE) 20:39:44 145.826/435.025
CUBEBUG 2 21 Apr 20:40:07 20:42:43 16° 68° (ENE) 20:45:32 437.445
RS-15 21 Apr 20:40:14 20:45:40 14° 11° (N) 20:51:27 29.354- 29.394
HO-68 21 Apr 20:41:27 20:48:39 88° 255° (WSW) 20:55:55 435.675
COMPASS 1 21 Apr 20:47:56 20:52:07 63° 76° (ENE) 20:56:20 437.405
PRISM 21 Apr 20:51:24 20:52:06 10° 294° (WNW) 20:52:33 437.425
Cosmos 2499 21 Apr 20:51:57 20:58:44 23° 293° (WNW) 21:05:04 435.465 / 435.565
YUBILEINY 21 Apr 20:56:14 21:01:28 18° 64° (ENE) 21:07:11 435.215
BRITE-PL 21 Apr 21:01:05 21:04:36 26° 265° (W) 21:08:04 437.365/2234.400
DX 1 21 Apr 21:01:33 21:03:00 12° 66° (ENE) 21:04:43 434.975-435.025
SEEDS 21 Apr 21:06:29 21:10:42 61° 260° (W) 21:14:57 437.485
PHONESAT 2.4 21 Apr 21:07:28 21:10:55 43° 352° (N) 21:14:22 2401.200-2431.200
CANX-2 21 Apr 21:07:38 21:11:43 43° 262° (W) 21:15:51 2200.000
GOMX 1 21 Apr 21:10:36 21:14:22 32° 264° (W) 21:18:10 467.674
UWE-3 21 Apr 21:14:17 21:18:03 31° 72° (ENE) 21:21:59 435.000/436.395/437.385
CUTE 1.7 + AOD 2 21 Apr 21:17:36 21:21:35 36° 263° (W) 21:25:34 437.475
SO-50 21 Apr 21:20:28 21:25:13 44° 55° (NE) 21:29:54 436.795
VERMONT LUNAR 21 Apr 21:23:22 21:26:35 39° 6° (N) 21:29:47 437.305
AAUSAT CUBESAT 2 21 Apr 21:34:32 21:38:30 40° 262° (W) 21:42:30 437.432
FUNcube-1 21 Apr 21:35:20 21:39:22 43° 73° (ENE) 21:43:32 145.935
DELFI C3 21 Apr 21:38:01 21:42:05 70° 77° (ENE) 21:46:10 145.870
CINEMA 3 21 Apr 21:46:46 21:50:47 41° 263° (W) 21:54:56 145.822/145.860
UKube-1 21 Apr 21:48:08 21:52:05 37° 72° (ENE) 21:56:06 .
VELOX 1 21 Apr 21:49:48 21:52:45 18° 69° (ENE) 21:55:51 145.980
ZACube-1 21 Apr 21:58:38 22:02:54 85° 75° (ENE) 22:07:18 437.345
AISAT 21 Apr 22:05:04 22:08:47 28° 71° (ENE) 22:12:34 437.250
Oscar 11 21 Apr 22:08:42 22:12:44 37° 262° (W) 22:16:47 145.826/435.025
CUBEBUG 1 21 Apr 22:08:57 22:10:57 13° 67° (ENE) 22:13:11 437.445
DOVE 4 21 Apr 22:11:07 22:12:22 11° 272° (W) 22:13:19 437.250
ANTELSAT 21 Apr 22:11:10 22:13:42 15° 90° (E) 22:16:27 437.575/2403.000
CUBEBUG 2 21 Apr 22:15:07 22:19:07 38° 263° (W) 22:23:14 437.445
ESTCUBE 1 21 Apr 22:28:49 22:32:34 27° 71° (ENE) 22:36:23 437.505/2401.250
HUMSAT D 21 Apr 22:28:59 22:33:10 89° 86° (E) 22:37:27 437.325/437.525
HO-68 21 Apr 22:34:15 22:37:28 13° 273° (W) 22:40:06 435.675
DX 1 21 Apr 22:34:35 22:38:50 55° 259° (W) 22:43:06 434.975-435.025
Cosmos 2491 21 Apr 22:35:11 22:43:12 44° 89° (E) 22:51:23 435.465 / 435.565
50 SAT 21 Apr 22:43:01 22:46:59 81° 77° (ENE) 22:51:01 437.505
PHONESAT 2.4 21 Apr 22:46:06 22:49:34 46° 9° (N) 22:53:01 2401.200-2431.200
POLYITAN 1 21 Apr 22:49:35 22:52:24 17° 93° (E) 22:55:22 437.675
YUBILEINY 21 Apr 22:50:49 22:59:36 85° 266° (W) 23:08:19 435.215
UWE-3 21 Apr 22:51:36 22:54:42 19° 268° (W) 22:57:45 435.000/436.395/437.385
RS-15 21 Apr 22:52:48 23:03:02 36° 43° (NE) 23:13:52 29.354- 29.394
DUCHIFAT 1 21 Apr 22:55:49 22:58:53 20° 94° (E) 23:02:04 145.980
VERMONT LUNAR 21 Apr 23:00:54 23:04:17 85° 203° (SSW) 23:07:39 437.305
SO-50 21 Apr 23:01:51 23:05:29 20° 250° (WSW) 23:08:56 436.795
TIGRISAT 21 Apr 23:01:59 23:06:37 53° 100° (E) 23:11:11 435.000
O/OREOS (USA 219) 21 Apr 23:02:04 23:06:39 80° 109° (ESE) 23:11:14 437.305
UNISAT 6 21 Apr 23:04:15 23:08:56 58° 100° (E) 23:13:33 437.425
BUGSAT 1 21 Apr 23:09:39 23:12:34 19° 94° (E) 23:15:39 437.445
QB50P1 21 Apr 23:09:55 23:13:40 29° 96° (E) 23:17:27 145.935-145.965
FUNcube-1 21 Apr 23:13:42 23:16:00 14° 270° (W) 23:18:07 145.935
VELOX 1 21 Apr 23:25:04 23:29:06 35° 262° (W) 23:33:07 145.980
UKube-1 21 Apr 23:25:41 23:28:25 16° 268° (W) 23:30:59 .
TISAT 1 21 Apr 23:30:47 23:33:58 22° 70° (ENE) 23:37:16 437.305
QB50P2 21 Apr 23:34:02 23:38:18 60° 100° (E) 23:42:32 145.880/145.840
AISAT 21 Apr 23:41:54 23:45:23 22° 265° (W) 23:48:47 437.250
CUBEBUG 1 21 Apr 23:42:47 23:46:58 47° 261° (W) 23:51:10 437.445
SPROUT 21 Apr 23:44:07 23:48:05 40° 73° (ENE) 23:52:07 437.525
ANTELSAT 21 Apr 23:46:15 23:50:48 48° 287° (WNW) 23:55:17 437.575/2403.000
NANOSAT C BR1 21 Apr 23:55:14 23:59:31 78° 283° (WNW) 00:03:48 145.865
POPSAT HIP 1 21 Apr 23:56:26 00:00:44 75° 284° (WNW) 00:05:01 437.405
ESTCUBE 1 22 Apr 00:05:41 00:09:25 24° 265° (W) 00:13:05 437.505/2401.250
Cosmos 2504 22 Apr 00:19:07 00:26:11 33° 72° (ENE) 00:32:57 435.465 / 435.565
PHONESAT 2.4 22 Apr 00:24:23 00:27:54 59° 206° (SSW) 00:31:24 2401.200-2431.200
POLYITAN 1 22 Apr 00:24:31 00:28:27 34° 288° (WNW) 00:32:19 437.675
DUCHIFAT 1 22 Apr 00:31:00 00:34:45 30° 288° (WNW) 00:38:28 145.980
Cosmos 2491 22 Apr 00:32:20 00:40:14 36° 287° (WNW) 00:48:01 435.465 / 435.565
VERMONT LUNAR 22 Apr 00:39:19 00:41:29 16° 215° (SW) 00:43:35 437.305
TIGRISAT 22 Apr 00:40:17 00:42:56 15° 293° (WNW) 00:45:21 435.000
UNISAT 6 22 Apr 00:42:54 00:45:15 13° 294° (WNW) 00:47:22 437.425
BUGSAT 1 22 Apr 00:44:31 00:48:06 28° 288° (WNW) 00:51:39 437.445
QB50P1 22 Apr 00:46:10 00:49:23 20° 290° (WNW) 00:52:29 145.935-145.965
ITUPSAT 1 22 Apr 00:47:14 00:51:08 26° 70° (ENE) 00:55:08 437.325
AIST 1 22 Apr 00:49:25 00:53:32 44° 93° (E) 00:57:39
YUBILEINY 22 Apr 00:51:06 00:55:18 14° 280° (W) 00:58:49 435.215
RS-15 22 Apr 01:04:54 01:16:27 70° 245° (WSW) 01:28:25 29.354- 29.394
TISAT 1 22 Apr 01:06:09 01:09:40 25° 265° (W) 01:13:09 437.305
QB50P2 22 Apr 01:12:33 01:13:45 11° 294° (WNW) 01:14:41 145.880/145.840
BEESAT 22 Apr 01:19:54 01:24:36 59° 74° (ENE) 01:29:19 436.000
SWISSCUBE 22 Apr 01:21:39 01:26:24 67° 75° (ENE) 01:31:10 437.505
SPROUT 22 Apr 01:21:58 01:24:25 14° 269° (W) 01:26:39 437.525
Oscar 19 22 Apr 01:36:52 01:41:37 36° 97° (E) 01:46:24 437.125/150
STARS 22 Apr 01:53:20 01:55:22 13° 67° (ENE) 01:57:37 437.465
ITAMSAT 1 22 Apr 02:03:13 02:06:40 18° 92° (E) 02:10:19 435.822/435.867
PHONESAT 2.4 22 Apr 02:04:40 02:05:44 11° 218° (SW) 02:06:40 2401.200-2431.200
Gurwin Techsat 1B 22 Apr 02:08:39 02:12:10 18° 92° (E) 02:15:54 435.225
Cosmos 2504 22 Apr 02:12:17 02:19:48 43° 271° (W) 02:26:44 435.465 / 435.565
KKS-1 22 Apr 02:22:38 02:26:51 47° 74° (ENE) 02:31:08 437.445
BEESAT 3 22 Apr 02:22:55 02:23:54 11° 109° (ESE) 02:25:07 437.485
ITUPSAT 1 22 Apr 02:24:46 02:28:57 29° 264° (W) 02:33:05 437.325
AIST 1 22 Apr 02:29:27 02:31:30 13° 289° (WNW) 02:33:20
JUGNU 22 Apr 02:43:22 02:45:34 12° 170° (S) 02:47:51 437.505
BEESAT 22 Apr 03:00:48 03:02:53 12° 270° (W) 03:04:42 436.000
SWISSCUBE 22 Apr 03:03:39 03:04:48 10° 271° (W) 03:05:35 437.505
GONETS M04 22 Apr 03:13:06 03:20:40 32° 71° (ENE) 03:28:24
Oscar 19 22 Apr 03:16:37 03:20:49 24° 292° (WNW) 03:24:52 437.125/150
RS-15 22 Apr 03:22:29 03:27:26 13° 260° (W) 03:31:06 29.354- 29.394
STARS 22 Apr 03:27:13 03:31:27 49° 260° (W) 03:35:43 437.465
ITAMSAT 1 22 Apr 03:41:31 03:46:27 45° 288° (WNW) 03:51:21 435.822/435.867
Gurwin Techsat 1B 22 Apr 03:47:22 03:52:28 47° 288° (WNW) 03:57:31 435.225
BEESAT 2 22 Apr 03:53:29 03:57:35 75° 299° (WNW) 04:01:44 435.950
CUSAT 1 22 Apr 03:56:03 04:02:45 37° 74° (ENE) 04:10:19 437.405
MOZHAYETS 4 22 Apr 03:56:47 04:00:47 30° 72° (ENE) 04:04:53
BEESAT 3 22 Apr 03:57:29 04:01:29 54° 302° (WNW) 04:05:32 437.485
KKS-1 22 Apr 04:01:33 04:03:49 13° 269° (W) 04:05:52 437.445
DANDE 22 Apr 04:08:40 04:15:11 36° 75° (ENE) 04:22:49 436.750
AO-7 22 Apr 04:16:04 04:23:55 46° 100° (E) 04:31:51 29.400- 29.500
AIST 2 22 Apr 04:28:52 04:33:06 81° 119° (ESE) 04:37:25 435.215
JUGNU 22 Apr 04:30:26 04:33:50 16° 180° (S) 04:37:12 437.505
SRMSAT 22 Apr 04:33:10 04:35:37 13° 170° (S) 04:38:08 437.500
JAS-2 22 Apr 04:35:50 04:42:16 65° 100° (E) 04:47:56 435.910
HORYU 2 22 Apr 04:36:33 04:41:02 64° 285° (WNW) 04:45:27 437.375
Cosmos 2499 22 Apr 04:52:58 04:58:16 20° 65° (ENE) 05:03:40 435.465 / 435.565
M-CUBED/EXP-1 PRIME 22 Apr 05:06:30 05:10:33 30° 66° (ENE) 05:14:47 437.505
GONETS M04 22 Apr 05:09:24 05:17:53 51° 270° (W) 05:26:14
CUBESAT XI-V 22 Apr 05:22:56 05:26:06 19° 69° (ENE) 05:29:24 437.345
STRAND 1 22 Apr 05:31:51 05:34:01 13° 64° (ENE) 05:36:28 437.568
